Location: Newark
(46.7636°N, 1.8358°W)
Time: 00:48:31
(UTC+00:00)

A-11 Canister half - Visible Passes

Search period start: 17 October 2019 00:00
Search period end: 27 October 2019 00:00
Orbit: 1514 x 1686 km, 47.2° (Epoch: 16 October)

Date Brightness Start Highest point End Pass type
(mag) Time Alt. Az. Time Alt. Az. Time Alt. Az.
17 Oct 10.9 01:03:32 15° E 01:03:32 15° E 01:05:47 10° E visible
17 Oct 9.2 03:01:45 54° SSE 03:02:46 56° SSE 03:12:00 10° ENE visible
17 Oct 9.0 04:59:57 20° WSW 05:07:26 89° S 05:16:55 10° E visible
18 Oct 11.1 00:42:01 11° E 00:42:01 11° E 00:42:38 10° E visible
18 Oct 9.3 02:40:13 53° SE 02:40:13 53° SE 02:49:04 10° ENE visible
18 Oct 9.0 04:38:25 27° WSW 04:44:29 88° S 04:54:00 10° E visible
19 Oct 9.6 02:18:39 47° ESE 02:18:39 47° ESE 02:26:10 10° ENE visible
19 Oct 9.0 04:16:51 37° WSW 04:21:33 87° SSE 04:31:06 10° E visible
20 Oct 9.9 01:57:04 39° ESE 01:57:04 39° ESE 02:03:14 10° ENE visible
20 Oct 8.9 03:55:16 48° WSW 03:58:37 86° SSE 04:08:11 10° E visible
20 Oct 9.1 05:54:00 10° W 06:03:47 89° S 06:13:11 10° ESE visible
21 Oct 10.2 01:35:27 31° E 01:35:27 31° E 01:40:18 10° ENE visible
21 Oct 8.9 03:33:39 62° WSW 03:35:41 85° SSE 03:45:16 10° E visible
21 Oct 9.1 05:31:51 13° W 05:40:51 90° S 05:50:17 10° E visible
22 Oct 10.5 01:13:51 24° E 01:13:51 24° E 01:17:22 10° ENE visible
22 Oct 8.8 03:12:02 78° SW 03:12:44 83° SSE 03:22:21 10° ENE visible
22 Oct 9.0 05:10:14 19° W 05:17:54 89° N 05:27:22 10° E visible
23 Oct 10.8 00:52:13 18° E 00:52:13 18° E 00:54:25 10° ENE visible
23 Oct 9.0 02:50:25 78° ESE 02:50:25 78° ESE 02:59:27 10° ENE visible
23 Oct 9.0 04:48:37 26° W 04:54:58 89° N 05:04:28 10° E visible
24 Oct 11.0 00:30:35 13° ENE 00:30:35 13° ENE 00:31:28 10° ENE visible
24 Oct 9.2 02:28:47 63° E 02:28:47 63° E 02:36:32 10° ENE visible
24 Oct 9.0 04:26:59 34° W 04:32:01 88° N 04:41:33 10° E visible
25 Oct 9.6 02:07:10 49° E 02:07:10 49° E 02:13:38 10° ENE visible
25 Oct 9.0 04:05:21 45° W 04:09:04 88° N 04:18:39 10° E visible
25 Oct 9.2 06:04:22 10° WNW 06:13:56 65° SSW 06:23:09 10° SE visible
26 Oct 10.0 01:45:32 37° E 01:45:32 37° E 01:50:43 10° ENE visible
26 Oct 8.9 03:43:44 58° W 03:46:08 87° N 03:55:44 10° E visible
26 Oct 9.2 05:41:57 12° WNW 05:51:03 67° SSW 06:00:18 10° SE visible
